Regional Weather Roundup
Issued by NWS

Home | Current Version | Previous Version | Graphics & Text | Print | Product List | Glossary On
Versions: 1 2 3 4 5 6 7 8 9 10 11 12 13 14 15 16 17 18 19 20 21 22 23 24 25 26 27 28 29 30 31 32 33 34 35 36 37 38 39 40 41 42 43 44 45 46 47 48 49 50
696
ASUS45 KTFX 201710
RWRMT
MONTANA REGIONAL WEATHER ROUNDUP
NATIONAL WEATHER SERVICE GREAT FALLS MT
1100 AM MDT THU JUL 20 2017

NOTE: "FAIR" INDICATES FEW OR NO CLOUDS BELOW 12000 FEET WITH NO
SIGNIFICANT WEATHER AND/OR OBSTRUCTIONS TO VISIBILITY.

MTZ001>007-043-201800-
WEST OF THE DIVIDE

CITY           SKY/WX    TMP DP  RH WIND       PRES   REMARKS
KALISPELL      SUNNY     77  47  34 N7        29.96F
MISSOULA       SUNNY     76  42  29 VRB7      29.99F
BUTTE          SUNNY     81  29  15 VRB5      30.10F
MULLAN PASS    SUNNY     59  40  49 VRB5      30.17R
ANACONDA         N/A     84  27  12 S14       30.04F
DEER LODGE       N/A     77  46  33 N3        30.03F
EUREKA           N/A     75  46  35 MISG      29.96F
HAMILTON         N/A     72  46  40 N3        30.00S
LIBBY            N/A     73  43  33 CALM      29.96F
PLAINS           N/A     78  45  31 CALM      29.99
$$

MTZ008-052>055-201800-
SOUTHWEST MONTANA

CITY           SKY/WX    TMP DP  RH WIND       PRES   REMARKS
BOZEMAN        SUNNY     82  44  26 CALM      30.05S
DILLON         SUNNY     76  42  29 SW3       30.08F
W YELLOWSTONE  CLOUDY    68  45  42 SW3       30.25F
ENNIS          SUNNY     82  19   9 S9        30.15S
$$

MTZ009-010-012-014-046-048-049-054-201800-
EAST SLOPES AND CENTRAL MONTANA

CITY           SKY/WX    TMP DP  RH WIND       PRES   REMARKS
CUT BANK       SUNNY     80  34  19 VRB5      29.95F
GREAT FALLS    SUNNY     80  33  18 W12       29.94F
HELENA         SUNNY     80  43  26 N6        29.98F
CHOTEAU          N/A     81  34  18 SW6       29.97S
CONRAD           N/A     78  47  33 N3        29.97F
$$

MTZ011-013-016-021-045-047-050-051-201800-
NORTH CENTRAL MONTANA

CITY           SKY/WX    TMP DP  RH WIND       PRES   REMARKS
HAVRE          SUNNY     88  42  20 E10       29.88F
LEWISTOWN      SUNNY     83  38  20 CALM      29.97F
N BAR RANCH      N/A     82  41  23 E3        30.01S
CHINOOK          N/A     81  50  34 E7        29.88F
$$

MTZ017>020-022>027-061-062-201800-
NORTHEAST MONTANA

CITY           SKY/WX    TMP DP  RH WIND       PRES   REMARKS
JORDAN           N/A     88  55  32 SE7       29.87
SIDNEY         SUNNY     86  60  41 NE6       29.92F
WOLF POINT     PTSUNNY   86  54  33 NE14      29.90F
MALTA          SUNNY     81  52  36 E13       29.88F
PLENTYWOOD       N/A     79  57  47 E8        29.95F
SCOBEY           N/A     75  50  41 W9        29.99R
$$

MTZ028>42-056>058-201800-
SOUTHCENTRAL AND SOUTHEAST MONTANA

CITY           SKY/WX    TMP DP  RH WIND       PRES   REMARKS
BAKER          SUNNY     91  58  32 S24G33    29.97F HX  90
BILLINGS       MOSUNNY   83  51  33 SW9       29.95F
LIVINGSTON     SUNNY     87  35  15 SW16      30.03F
MILES CITY     SUNNY     95  53  24 S7G18     29.87F HX  92
BIG TIMBER     SUNNY     86  36  16 W16       30.04S
EKALAKA          N/A     87  59  38 SE15      29.97
FORSYTH          N/A     91  54  27 W3        29.87F
LAUREL           N/A     87  44  22 SW10      29.96S
$$

REGIONAL REPORTS...DAKOTAS

CITY           SKY/WX    TMP DP  RH WIND       PRES   REMARKS
WILLISTON      SUNNY     87  58  37 E5        29.93F
MINOT          SUNNY     86  64  47 S12G20    29.96F
DICKINSON      SUNNY     89  62  40 S13       29.97F
BEACH            N/A     88  57  35 S17       29.99F
CROSBY           N/A     79  61  53 SE9       29.96F
TIOGA            N/A     82  57  42 SW5       29.98F
WATFORD CITY     N/A     84  59  42 VRB7      29.94F
BISMARCK       SUNNY     88  62  41 S14       30.01F
GRAND FORKS    PTSUNNY   77  62  59 VRB3      30.01F
FARGO          SUNNY     81  58  45 CALM      30.01F
BUFFALO SD       N/A     84  66  54 SE20      29.94F
RAPID CITY     SUNNY     89  62  40 S13G21    30.06F
$$

REGIONAL REPORTS...WYOMING/IDAHO/WASHINGTON

CITY           SKY/WX    TMP DP  RH WIND       PRES   REMARKS
CODY           SUNNY     90  41  18 S9        30.07
YELLOWSTONE LA   N/A     65  48  54 W7G17     30.37R
IDAHO FALLS    PTSUNNY   81  55  40 SW6       30.12S
BOISE          SUNNY     79  44  28 NW9       30.05S
SPOKANE        MOSUNNY   71  45  39 SW25      30.03S
$$

REGIONAL REPORTS...ALBERTA

CITY           SKY/WX    TMP DP  RH WIND       PRES   REMARKS
EDMONTON       SUNNY     66  57  72 E7        29.87F
CALGARY        PTSUNNY   64  43  45 W7        29.89F SMOKE
LETHBRIDGE     MOSUNNY   79  43  27 NW14G22   29.92F
MEDICINE HAT   MOSUNNY   79  46  31 CALM      29.89F
WATERTON GATE    N/A     75  45  33 E5          N/A
$$

REGIONAL REPORTS...SASKATCHEWAN

CITY           SKY/WX    TMP DP  RH WIND       PRES   REMARKS
SWIFT CURRENT  SUNNY     79  52  38 S10       29.92F
REGINA         MOSUNNY   79  54  41 SE15      29.95F
SASKATOON      PTSUNNY   75  52  43 E6        29.95F
VAL MARIE        N/A     72  54  53 NE6         N/A
ROCKGLEN         N/A     70  54  56 SE8         N/A
$$




USA.gov is the U.S. government's official web portal to all federal, state and local government web resources and services.